Back to catalog

STARLINK-35790

AliveCommunicationsVLEO
NORAD 67055·PAYLOAD·🇺🇸 United States

Launched Dec 11, 2025 from Cape Canaveral Space Force Station

Loading…

Next Passes (next 24 hours)

TLE

FreshSource: CelesTrak SupGP

Epoch: Sep 14, 2026, 15:35 UTC

1 67055C 25294AB  26257.64979167 -.00047209  00000+0 -17099-2 0  2574
2 67055  43.0028  51.1004 0001654 271.2286 179.8700 15.27601982    11

Track STARLINK-35790 in real time with AllMySat

Download on the App Store